Regional Weather Roundup
Issued by NWS

Current Version | Previous Version | Text Only | Print | Product List | Glossary On
Versions: 1 2 3 4 5 6 7 8 9 10 11 12 13 14 15 16 17 18 19 20 21 22 23 24 25 26 27 28 29 30 31 32 33 34 35 36 37 38 39 40 41 42 43 44 45 46 47 48 49 50
000
ASCA42 TJSJ 180210
RWRPR
PUERTO RICO/U.S. VIRGIN ISLANDS HOURLY WEATHER ROUNDUP
NATIONAL WEATHER SERVICE SAN JUAN PR
1000 PM AST WED JAN 17 2018

PRZ001>002-007>008-010-180300-
PUERTO RICO

CITY           SKY/WX    TMP DP  RH WIND       PRES   REMARKS
SAN JUAN LMM   PTCLDY    77  73  88 SE9       30.04R
AGUADILLA      PTCLDY    73  70  88 E3        30.05S
$$

VIZ001>002-180300-
U.S. VIRGIN ISLANDS

CITY           SKY/WX    TMP DP  RH WIND       PRES   REMARKS
CHARLOTTE AMA  CLEAR     75  73  94 E6        30.03R
CHRISTIANSTED  CLEAR     73  72  94 NE5       30.03S
$$

HOURLY WEATHER ROUNDUP FOR THE NEWS MEDIA

CITY           SKY/WX    TMP DP  RH WIND       PRES   REMARKS
ORLANDO        FAIR      49  43  80 W13       30.28R
NEW YORK       CLOUDY    26  17  68 NW16      30.18S WCI  14
NEWARK         MOCLDY    24  11  57 NW12      30.20S WCI  13
CHICAGO        FAIR      18   8  65 SW18G26   30.28F WCI   2
HARTFORD       CLOUDY    33  33 100 CALM      30.07S
BOSTON         FLURRIES  32  29  88 NW8       30.08S WCI  25
DALLAS         CLOUDY    29   6  38 SE7       30.62S WCI  22
PHILADELPHIA   CLOUDY    24   8  50 NW15      30.26R WCI  11
LOS ANGELES    PTCLDY    62  56  80 SW5       30.11S
WASHINGTON DC  CLOUDY    21   7  54 NW16G23   30.31F WCI   7


USA.gov is the U.S. government's official web portal to all federal, state and local government web resources and services.